Flag for India Weather past 2 weeks in Pratapgarh, Uttar Pradesh, India

Now
79 °F

Partly cloudy.


Feels Like: 83 °F
Forecast: 80 / 89 °F
Wind: No wind

Location: Varanasi / Babatpur

Current Time: Aug 1, 2015 at 11:53:32 PM

Latest Report: Aug 1, 2015 at 11:00 PM


Visibility: 2 mi

Pressure: 29.71 "Hg

Humidity: 94%

Dew point: 77 °F

Location of PratapgarhLocation

Historic Weather in Pratapgarh — Graph

°F

Pratapgarh temperature yesterday

Maximum temperature yesterday: 86 °F (at 12:00 AM)
Minimum temperature yesterday: 81 °F (at 10:00 AM)
Average temperature yesterday: 83 °F

Past Weeks' High & Low Weather Summary

 TemperatureHumidityPressure
High99 °F (Jul 27, 4:00 PM)100% (Jul 23, 11:00 PM)29.71 "Hg (Jul 23, 11:00 PM)
Low77 °F (Jul 26, 6:00 AM)45% (Jul 23, 4:00 AM)29.39 "Hg (Jul 19, 4:00 PM)
Average87 °F76%29.55 "Hg
* Reported Jul 17 11:00 PM — Aug 1 10:00 PM, Pratapgarh, Weather by CustomWeather, © 2015

Note: Actual official high and low records may vary slightly from our data, if they occured in-between our weather recording intervals... More about our weather records

Advertising

Pratapgarh weather history for previous 24 hours

 ConditionsComfort  
Time TempWeatherWind HumidityBarometerVisibility
10:00 PM
Sat, Aug 1
82 °FPartly cloudy.No wind84%29.68 "Hg2 mi
9:00 PM84 °FPartly cloudy.No wind79%29.65 "Hg2 mi
8:00 PM84 °FPartly cloudy.No wind79%29.65 "Hg2 mi
7:00 PM84 °FBroken clouds.No wind79%29.62 "Hg2 mi
6:00 PM84 °FBroken clouds.No wind84%29.62 "Hg3 mi
4:00 PM86 °FBroken clouds.2 mph79%29.62 "Hg4 mi
3:00 PM86 °FBroken clouds.3 mph79%29.65 "Hg4 mi
2:00 PM90 °FBroken clouds.8 mph67%29.68 "Hg4 mi
1:00 PM88 °FBroken clouds.No wind70%29.71 "Hg4 mi
12:00 PM84 °FBroken clouds.No wind79%29.71 "Hg3 mi
11:00 AM88 °FBroken clouds.No wind70%29.71 "Hg3 mi
10:00 AM84 °FScattered clouds.No wind74%29.71 "HgN/A
9:00 AM79 °FLight rain. Broken clouds.6 mph89%29.68 "Hg2 mi
8:00 AM77 °FLight rain. More clouds than sun.5 mph94%29.65 "Hg1 mi
7:00 AM77 °FMore clouds than sun.No wind94%29.65 "Hg2 mi
6:00 AM77 °FLight rain. More clouds than sun.No wind94%29.65 "Hg1 mi
5:00 AM77 °FLight rain. Mostly cloudy.3 mph100%29.62 "Hg1 mi
4:00 AM79 °FPartly cloudy.1 mph89%29.62 "Hg2 mi
12:00 AM79 °FLight rain. Mostly cloudy.6 mph94%29.65 "Hg2 mi
Weather by CustomWeather, © 2015

See weather overviewHow to use our weather pages